User: anonymous   Login
Location: Biltmore Gardens
(41.6070°N, 83.4666°W)
Time: 19:39:34
(UTC+00:00)
Language:

Cosmos 1992 Rocket - Orbit

View from above orbital plane
View from above orbital plane
View from above satellite
View from above satellite

Ground track
Ground track

The orbit data is extracted from the following two-line orbital elements,

1 19770U 89005B   20263.08557311 -.00000011  00000-0  49918-5 0  9998
2 19770  74.0473  16.0916 0004514 173.1398 359.7217 14.38839533657694
Epoch (UTC): 19 September 2020 02:03:13
Eccentricity: 0.0004514
inclination: 74.0473°
perigee height: 759 km
apogee height: 765 km
right ascension of ascending node: 16.0916°
argument of perigee: 173.1398°
revolutions per day: 14.38839533
mean anomaly at epoch: 359.7217°
orbit number at epoch: 65769

The dashed part of the orbit path shows where the satellite is in the earth's shadow,  

DLR